Location: Unspecified
(48.8656°N, 0.0000°E)
Time: 21:10:51
(UTC+00:00)

SR - Pass Details

Date: 28 June 2019
Orbit: 574 x 881 km, 66.7° (Epoch: 22 October)

Event Time Altitude Azimuth Distance (km) Brightness Sun altitude
Rises 08:27:50 0° 328° (NNW) 2,939 ? 40.9°
Reaches altitude 10° 08:30:50 10° 350° (N) 2,083 ? 41.3°
Maximum altitude 08:33:53 17° 30° (NNE) 1,727 ? 41.8°
Drops below altitude 10° 08:37:05 10° 71° (ENE) 2,204 ? 42.3°
Sets 08:40:23 0° 91° (E) 3,193 ? 42.9°
